Hourly Data Report for September 07, 2010

IQALUIT CLIMATE
NUNAVUT

63°44'50.000" N
68°32'40.000" W
33.50 m
2402592
71321
XFB

Download Data

Hourly Data (September 2010)
Hourly Data Report for September 7, 2010
TIME
LST
Temp Definition
°C
Dew Point Definition
°C
Rel Hum Definition
%
Precip. Amount Definition
mm

Wind Dir Definition
10's deg

Wind Spd Definition
km/h
Visibility Definition
km
Stn Press Definition
kPa
Hmdx Definition


Wind Chill Definition


Weather Definition


00:00 6.3 2.7 78   36 2   101.93     LegendNANA
01:00 5.2 2.0 80   35 9   101.94     LegendNANA
02:00 7.0 3.3 77   32 15   101.95     LegendNANA
03:00 7.1 3.6 78   34 6   101.98     LegendNANA
04:00 6.2 3.8 85   34 11   102.00     LegendNANA
05:00 5.7 3.6 86   33 9   102.03     LegendNANA
06:00 7.4 5.1 85   33 11   102.04     LegendNANA
07:00 9.0 5.5 79   32 13   102.04     LegendNANA
08:00 10.4 5.8 73   31 19   102.05     LegendNANA
09:00 12.2 6.0 66   31 17   102.06     LegendNANA
10:00 13.1 5.7 61   33 19   102.04     LegendNANA
11:00 14.5 6.8 60   32 19   101.99     LegendNANA
12:00 15.0 6.3 56   33 17   101.98     LegendNANA
13:00 16.0 5.9 51   32 17   101.93     LegendNANA
14:00 16.2 4.4 45   31 17   101.88     LegendNANA
15:00 16.1 3.9 44   33 15   101.84     LegendNANA
16:00 10.0 5.9 76   16 9   101.81     LegendNANA
17:00 9.8 5.5 75   16 4   101.80     LegendNANA
18:00 9.1 5.1 76     0   101.77     LegendNANA
19:00 9.6 5.4 75     0   101.77     LegendNANA
20:00 8.2 5.1 81   35 6   101.76     LegendNANA
21:00 7.0 4.3 83   32 6   101.73     LegendNANA
22:00 5.6 3.3 85   33 9   101.70     LegendNANA
23:00 5.0 2.1 81   34 7   101.65     LegendNANA

Notes on Data Quality.

Legend

  • E = Estimated
  • M = Missing
  • NA = Not Available*
  • [empty] = Indicates an unobserved value
Date modified: